Temperature
18 18 18 17 18 18 18 18 17 17 17 17 18 18 18 18 18 18 18 18 18 18 18 18 18 17 17 17 17 17 17 17 17 17 17 17 17 17 16 16 16 16 16
18 18 18 18 18 18 18 18 18 18 18 18 18 18 18 18 18 17 18 18 18 18 18 18 18 18 17 17 17 17 17 17 17 17 17 17 17 16 16 16 16 16 16
18 18 18 18 18 18 18 18 18 18 18 18 18 18 18 18 18 18 18 18 18 18 18 18 18 18 18 17 17 17 17 17 17 17 17 17 16 16 16 16 16 16 16
18 18 18 18 18 18 18 18 18 18 18 18 18 18 18 18 18 18 18 18 18 18 18 18 18 18 18 18 17 17 17 17 17 17 17 17 17 16 16 16 16 16 16
18 18 18 18 18 18 18 18 18 18 18 18 18 18 18 18 18 18 18 18 18 18 18 18 18 18 18 18 17 17 17 17 17 17 17 17 17 16 16 16 16 16 16
18 18 18 18 18 18 18 18 18 18 18 18 18 19 18 18 18 18 18 18 18 18 18 18 18 18 18 18 18 18 17 17 17 17 17 17 17 17 16 16 16 16 16
18 18 18 18 18 18 18 18 18 18 18 18 18 19 19 19 19 18 18 18 18 18 18 18 18 18 18 18 18 18 17 17 17 17 17 17 17 17 17 16 16 16 16
18 18 18 18 18 18 18 18 18 18 18 18 18 19 20 19 19 19 19 18 18 18 18 18 18 18 18 18 18 18 18 18 17 17 17 17 17 17 17 17 17 16 16
18 18 18 18 18 18 18 18 18 18 18 18 18 18 19 20 19 19 19 18 18 18 18 18 18 18 18 18 18 18 18 18 18 17 17 17 17 17 17 17 16 16 16
18 18 18 18 18 18 18 18 18 18 18 18 18 18 18 18 19 19 19 19 18 18 18 18 18 18 18 18 18 18 18 18 18 18 18 17 17 17 17 17 16 16 16
18 18 18 18 18 18 18 18 18 18 18 18 18 18 18 18 18 19 19 19 19 18 18 18 18 18 18 17 17 18 18 18 18 18 17 17 17 17 17 17 17 16 16
18 18 18 18 18 18 18 18 18 18 18 18 18 18 18 18 18 19 19 19 19 19 18 18 18 18 18 17 17 18 18 18 18 17 17 17 17 17 17 17 17 16 16
19 18 18 18 18 18 18 18 18 18 18 18 18 18 18 18 18 18 18 19 18 19 18 18 18 18 18 18 17 18 18 18 17 17 17 17 17 17 17 17 17 16 16
19 18 18 18 18 18 18 18 18 18 18 18 18 17 17 18 18 18 18 18 18 19 19 18 18 18 17 17 17 17 17 17 17 17 17 17 17 17 17 17 16 16 16
18 18 18 18 18 18 18 18 18 18 18 18 18 17 17 18 17 17 18 18 18 18 19 18 18 17 17 17 17 17 17 17 17 17 17 17 17 17 17 16 16 16 16
18 18 18 18 18 18 18 18 18 17 17 17 17 17 17 17 18 17 17 17 17 18 18 18 17 17 17 17 17 16 16 17 17 17 17 17 17 16 16 16 16 16 16
18 18 18 18 18 18 18 18 18 17 17 17 17 17 17 17 17 17 17 17 17 17 17 17 17 17 16 16 16 16 16 16 16 16 16 16 16 16 16 16 16 16 16
18 18 18 18 18 18 18 18 17 17 17 17 17 17 17 17 17 17 17 17 17 17 17 17 17 16 16 16 16 16 16 16 16 16 16 16 16 16 16 15 15 15 15
18 18 18 18 18 18 17 17 17 17 17 17 17 17 17 16 16 16 16 16 16 16 16 16 16 16 16 16 16 16 15 16 15 16 16 15 15 15 15 15 15 15 15
18 18 18 18 17 17 17 17 17 17 17 17 16 16 16 16 16 16 16 16 16 16 16 16 16 16 16 15 15 15 15 15 15 15 15 15 15 15 15 15 15 15 15
18 18 18 17 17 17 17 17 17 17 17 16 16 16 16 16 16 16 16 16 16 16 16 16 16 16 16 15 15 15 15 15 15 15 15 14 14 14 14 14 14 14 14
18 18 17 17 17 17 17 17 17 16 16 16 16 16 16 16 16 16 16 16 15 15 15 15 16 15 15 15 15 15 15 15 15 14 14 14 14 14 14 14 14 14 14
18 17 17 17 17 17 17 17 17 16 16 16 15 15 16 16 15 15 15 15 15 15 15 15 15 15 14 14 14 14 14 14 14 14 14 14 14 14 14 14 13 13 13
17 17 17 17 17 17 17 16 16 16 16 15 15 15 15 15 15 15 15 15 15 15 15 14 14 14 14 14 14 14 13 13 13 13 13 13 14 14 14 13 13 13 13
17 17 17 17 16 16 16 16 16 16 15 15 15 15 15 15 15 15 15 14 14 14 14 14 14 14 14 14 14 13 13 13 14 14 13 13 13 13 13 13 13 13 13
16 16 16 16 16 16 16 16 16 15 15 15 15 15 15 15 15 15 14 14 14 14 14 13 14 13 13 13 13 13 13 13 13 13 13 12 13 13 13 13 13 12 12
Wind_Speed
2 2 2 1 1 2 3 2 1 0 1 2 2 2 2 2 2 3 4 8 8 8 8 9 9 10 10 10 11 10 10 10 10 11 11 11 10 11 11 11 10 10 10
2 2 2 2 1 1 1 1 1 1 2 1 2 2 3 3 3 3 4 7 10 9 9 9 9 10 10 11 11 12 12 11 11 11 11 11 10 10 10 10 10 10 10
2 2 1 2 2 2 2 2 1 2 2 2 2 2 3 3 2 3 4 4 6 11 11 10 10 10 10 11 11 11 11 12 12 12 12 11 11 11 11 10 10 11 11
3 3 2 2 2 2 2 2 3 2 2 2 2 3 2 2 3 3 4 4 4 4 9 11 10 10 10 10 10 11 11 12 13 13 13 13 13 13 12 12 11 12 11
4 5 3 2 4 3 2 3 1 2 2 2 3 3 3 2 2 3 3 4 4 5 5 8 11 11 10 10 10 11 11 12 13 14 14 14 14 14 13 13 13 13 12
5 5 4 4 4 3 2 2 2 3 3 3 4 2 3 3 3 2 3 3 4 5 5 4 6 9 11 10 10 10 11 11 12 13 14 14 14 14 14 14 14 14 14
5 5 4 4 5 3 3 4 3 3 3 2 3 3 3 4 3 3 3 3 3 3 4 4 5 4 6 11 11 10 10 10 11 12 14 15 14 15 15 16 16 15 15
5 6 5 5 4 3 4 3 3 3 2 2 3 3 2 3 4 3 3 3 3 3 3 4 4 4 5 4 6 9 9 8 9 10 11 13 14 14 14 15 15 15 15
5 5 4 5 4 5 3 3 3 4 3 3 3 3 3 2 1 2 2 3 2 3 3 3 4 4 5 4 4 7 7 7 8 9 10 11 12 13 13 14 14 15 15
6 5 5 5 5 5 3 5 3 3 4 4 3 3 4 3 3 2 3 2 3 3 3 3 3 3 4 5 4 4 6 7 8 8 8 9 11 12 13 13 13 13 13
6 6 5 5 5 5 4 4 3 5 4 4 4 3 4 4 5 4 3 3 3 3 3 4 3 3 4 5 5 4 6 7 8 8 8 8 9 10 11 12 12 12 12
6 6 6 5 5 5 4 5 5 6 5 5 5 4 4 4 4 4 5 4 3 3 3 3 4 3 4 4 4 4 5 7 7 8 8 8 8 8 9 10 10 11 12
6 6 6 5 5 5 5 5 6 6 6 6 6 5 5 5 5 5 5 5 4 4 3 4 3 3 4 3 2 4 6 7 7 7 7 7 7 7 7 8 8 9 9
6 5 6 6 6 6 6 5 6 6 6 6 7 6 5 5 5 5 5 5 5 5 4 3 3 4 3 3 2 5 5 7 7 7 7 7 7 7 7 7 7 7 8
7 7 7 7 7 6 6 6 6 6 6 6 6 6 6 5 5 5 5 5 5 6 4 3 3 2 3 3 2 5 4 4 6 7 7 7 6 7 7 6 6 7 7
7 7 8 8 7 7 7 7 7 6 6 6 5 6 6 6 4 5 5 5 5 6 5 3 3 3 3 3 3 4 4 6 8 8 8 7 7 6 6 6 6 6 6
9 9 9 8 8 8 7 7 7 7 7 7 7 7 6 6 5 5 5 5 5 6 6 5 4 3 3 4 2 5 5 6 5 8 8 8 8 7 7 7 6 6 6
10 10 9 9 9 9 8 8 9 8 8 8 7 7 7 6 6 6 5 6 5 5 7 6 5 4 4 4 3 5 5 5 4 5 7 8 8 8 7 7 7 6 5
10 9 9 9 9 9 8 8 8 8 8 8 8 8 8 7 7 5 6 6 6 6 5 6 5 3 4 3 4 5 5 4 5 4 6 8 8 8 8 7 7 7 6
10 10 9 9 9 9 8 8 8 8 8 8 8 8 8 7 7 6 6 6 6 6 5 6 5 5 4 3 4 4 4 3 4 3 2 3 6 9 9 9 8 7 7
10 9 9 9 9 8 8 8 8 8 7 7 7 7 7 5 4 5 5 4 5 6 6 6 6 5 4 3 4 4 4 4 2 2 3 3 3 4 5 8 8 7 6
9 9 10 10 9 8 5 6 7 7 6 7 7 7 6 6 5 4 4 4 5 6 6 6 6 5 5 5 4 5 5 4 4 2 4 4 4 4 3 3 4 5 5
8 9 9 9 9 8 6 7 7 7 7 6 6 6 6 4 5 5 5 6 5 5 6 7 7 6 5 4 4 6 5 6 5 3 4 5 4 5 4 3 6 6 6
7 8 9 9 9 8 9 9 8 8 7 6 7 7 6 6 5 5 5 5 5 5 6 7 6 6 5 3 4 6 6 6 6 5 4 6 5 5 5 4 6 7 7
6 7 7 8 9 8 9 10 8 7 6 7 7 7 7 7 3 4 6 6 5 5 4 3 2 2 2 3 5 5 5 6 6 4 3 5 5 5 5 5 5 9 9
6 6 6 7 8 8 9 10 10 7 7 7 6 7 7 6 5 5 6 6 6 5 4 4 4 6 6 6 7 6 6 6 6 5 2 4 5 4 4 4 3 3 5
Wind_Direction
170 157 152 168 176 141 169 191 203 165 228 219 233 206 225 239 242 228 172 172 196 212 221 225 226 224 223 222 221 221 220 219 220 221 222 221 224 231 236 238 234 234 237
177 191 182 183 197 190 175 217 210 208 242 268 264 262 254 241 225 243 236 185 192 206 219 226 230 230 227 227 226 225 225 222 222 222 221 222 227 232 235 235 233 233 234
187 215 205 213 199 197 200 225 237 253 242 243 262 268 254 249 245 247 250 246 211 200 209 222 229 230 228 229 229 228 226 225 226 225 225 227 230 232 235 235 235 235 236
215 231 223 221 215 226 221 220 234 260 272 275 267 263 257 229 238 237 235 235 243 234 205 207 221 228 229 230 229 230 228 226 226 226 227 228 230 229 230 234 239 240 242
221 235 237 229 233 233 235 252 210 269 266 276 263 238 252 237 238 233 237 237 235 246 247 192 206 220 227 230 230 232 232 230 229 228 228 230 230 229 229 232 238 241 244
227 241 228 222 239 238 240 254 262 254 262 261 273 270 250 235 239 244 247 231 231 239 245 243 220 214 215 221 226 232 235 234 231 230 231 231 231 229 230 232 235 240 243
232 238 252 226 238 235 242 245 249 235 246 259 267 255 223 221 233 232 241 255 239 238 234 228 235 234 212 205 215 226 233 235 231 230 234 232 232 232 232 233 236 239 241
236 231 236 240 232 228 232 244 254 271 270 254 277 281 250 206 214 223 227 232 257 245 233 223 224 222 239 220 191 205 224 230 231 232 235 233 231 230 233 236 237 238 241
236 248 244 254 253 249 233 237 241 246 264 261 259 280 292 289 295 201 232 236 246 256 245 239 229 226 231 231 214 193 204 221 231 238 241 241 235 234 236 239 240 240 239
234 236 240 245 250 257 244 246 232 252 256 265 253 255 275 302 285 272 236 231 236 243 258 259 241 215 224 225 211 208 201 218 229 236 241 244 244 242 240 241 242 242 239
232 237 238 239 240 251 252 260 251 251 250 260 264 253 249 241 250 267 278 277 256 243 246 251 250 241 232 228 222 201 196 215 226 232 239 244 247 246 246 244 242 245 244
226 228 232 236 241 249 244 245 247 238 250 260 268 265 258 256 252 259 267 266 269 262 251 259 253 244 241 240 221 160 196 218 228 234 240 245 246 244 246 246 248 249 250
226 221 230 228 239 244 248 245 241 251 242 244 249 258 262 263 266 266 271 276 276 268 248 241 240 251 250 246 207 182 206 217 227 232 236 239 242 244 247 249 253 253 256
235 223 223 229 235 239 243 239 248 243 240 245 249 254 261 261 263 263 270 278 278 269 245 249 258 250 255 252 196 214 220 201 213 224 230 235 238 240 242 248 252 257 256
230 221 222 226 232 233 238 240 249 250 244 245 248 239 249 253 253 260 261 263 273 281 279 254 252 259 256 254 209 237 242 195 207 217 226 234 238 239 240 243 247 253 254
231 229 226 228 229 228 231 238 246 242 245 244 250 259 257 258 258 256 255 256 258 269 279 284 275 277 301 281 221 253 249 200 210 211 216 225 233 236 236 238 242 246 250
228 229 230 230 231 231 230 233 246 244 246 247 247 244 245 258 260 263 260 259 256 258 267 274 272 271 272 277 261 259 253 245 218 195 210 222 228 232 235 237 237 242 246
226 226 229 231 235 234 232 234 241 242 244 246 244 242 242 239 241 257 264 263 263 262 260 270 274 269 257 260 259 265 265 261 263 176 200 219 225 228 232 234 233 237 245
223 226 226 229 232 234 234 236 241 244 247 248 245 242 241 243 246 249 255 260 261 258 256 262 266 271 264 262 258 253 256 260 264 196 192 203 213 219 223 226 231 236 242
221 224 226 227 229 233 236 238 239 242 245 249 249 245 242 242 244 244 245 250 259 265 257 258 261 260 256 252 257 262 256 246 271 271 246 217 202 207 213 217 223 228 235
222 221 223 225 229 230 233 234 237 237 240 246 247 246 243 237 255 258 262 255 255 258 257 256 258 260 261 264 264 270 271 271 250 273 274 254 226 229 216 211 215 220 229
223 221 223 225 226 229 202 207 232 241 241 245 250 250 246 224 217 228 256 272 277 258 262 264 261 264 270 268 274 276 277 277 275 259 279 275 267 265 256 244 183 193 221
222 223 224 225 227 221 192 194 212 234 240 243 247 249 253 236 211 228 217 219 240 253 259 267 271 272 272 276 278 272 273 280 286 287 280 275 270 270 261 229 166 188 215
226 227 227 227 229 218 190 195 207 224 234 238 244 243 242 242 236 233 241 237 237 239 242 247 258 267 272 279 265 264 268 261 258 248 251 271 269 270 273 252 180 196 217
231 232 232 231 230 221 194 194 206 223 227 236 240 238 234 233 197 211 231 235 235 237 221 201 237 253 302 279 276 269 264 265 267 261 248 272 276 277 273 261 206 197 213
233 237 236 234 234 229 195 191 205 226 225 231 232 231 219 217 190 203 227 231 233 237 240 217 219 225 231 228 225 247 264 267 271 267 237 263 274 278 275 262 260 235 228
Height
1575 1576 1576 1576 1577 1578 1577 1577 1577 1577 1577 1577 1578 1578 1577 1577 1577 1578 1577 1576 1576 1576 1576 1577 1577 1577 1578 1578 1578 1578 1579 1579 1579 1580 1580 1580 1581 1581 1581 1582 1582 1582 1582
1575 1576 1576 1576 1577 1577 1578 1577 1577 1577 1577 1577 1577 1577 1576 1577 1576 1576 1577 1576 1575 1575 1575 1575 1575 1576 1576 1576 1576 1577 1577 1577 1577 1578 1578 1578 1579 1579 1579 1579 1580 1580 1580
1574 1575 1576 1576 1576 1577 1576 1577 1577 1577 1577 1577 1576 1576 1576 1575 1575 1574 1575 1575 1575 1574 1574 1574 1574 1574 1574 1574 1574 1574 1575 1575 1575 1575 1576 1576 1576 1576 1577 1577 1577 1578 1578
1574 1574 1575 1576 1575 1576 1576 1576 1576 1576 1576 1576 1575 1575 1574 1574 1573 1573 1573 1573 1573 1573 1573 1572 1572 1572 1572 1572 1572 1572 1572 1573 1573 1573 1573 1574 1574 1574 1574 1574 1575 1575 1576
1573 1574 1574 1574 1574 1575 1575 1575 1575 1575 1574 1574 1574 1573 1573 1573 1572 1572 1572 1572 1571 1571 1571 1570 1570 1570 1570 1570 1570 1570 1570 1570 1570 1571 1571 1571 1571 1571 1572 1572 1572 1572 1573
1572 1573 1573 1573 1573 1574 1573 1573 1573 1572 1572 1572 1572 1572 1571 1571 1571 1571 1570 1570 1570 1569 1569 1569 1568 1568 1567 1567 1567 1568 1568 1568 1568 1568 1569 1569 1569 1569 1569 1569 1569 1569 1569
1571 1571 1572 1571 1571 1572 1572 1572 1572 1571 1571 1571 1571 1570 1570 1569 1569 1569 1569 1568 1568 1567 1567 1566 1566 1566 1566 1565 1565 1565 1565 1565 1565 1566 1566 1566 1566 1566 1566 1566 1566 1566 1566
1569 1570 1569 1570 1570 1570 1569 1569 1569 1570 1570 1570 1569 1569 1568 1569 1567 1567 1567 1566 1566 1566 1565 1565 1564 1563 1563 1564 1563 1562 1562 1563 1563 1563 1563 1563 1563 1563 1563 1563 1563 1563 1563
1568 1568 1568 1568 1568 1569 1569 1568 1567 1567 1568 1568 1568 1568 1567 1566 1566 1566 1565 1565 1564 1564 1564 1563 1562 1562 1561 1561 1561 1560 1560 1560 1560 1560 1560 1560 1560 1560 1560 1560 1559 1559 1559
1565 1566 1566 1566 1566 1567 1566 1566 1566 1566 1566 1567 1566 1565 1566 1565 1565 1565 1564 1564 1563 1562 1562 1561 1561 1560 1559 1559 1558 1558 1557 1557 1557 1557 1557 1557 1557 1557 1557 1556 1556 1556 1555
1563 1563 1564 1564 1563 1564 1564 1564 1564 1564 1564 1564 1564 1564 1564 1563 1564 1563 1562 1562 1561 1560 1560 1559 1559 1558 1557 1557 1556 1555 1555 1555 1555 1555 1554 1554 1554 1553 1553 1553 1552 1552 1552
1561 1561 1561 1561 1561 1562 1562 1561 1561 1562 1562 1561 1562 1562 1562 1562 1561 1561 1560 1559 1559 1558 1558 1557 1556 1556 1555 1555 1554 1553 1553 1552 1552 1552 1551 1551 1551 1550 1550 1549 1549 1548 1548
1558 1558 1559 1559 1559 1559 1559 1559 1559 1559 1559 1559 1559 1559 1559 1559 1559 1559 1559 1558 1557 1556 1555 1555 1554 1554 1553 1553 1552 1550 1550 1549 1549 1549 1548 1548 1547 1547 1546 1546 1545 1545 1544
1556 1556 1556 1556 1557 1557 1557 1557 1558 1557 1557 1556 1557 1556 1556 1557 1557 1556 1556 1556 1555 1554 1553 1553 1552 1551 1550 1550 1549 1548 1547 1546 1546 1546 1545 1545 1544 1544 1543 1543 1542 1541 1541
1552 1552 1553 1553 1554 1554 1554 1554 1555 1554 1554 1554 1554 1554 1554 1554 1554 1553 1553 1553 1553 1551 1550 1550 1549 1549 1548 1547 1546 1545 1544 1543 1543 1542 1542 1541 1541 1540 1540 1539 1539 1538 1538
1548 1549 1549 1550 1550 1551 1551 1551 1552 1551 1551 1551 1551 1550 1550 1551 1551 1550 1550 1550 1549 1549 1548 1547 1546 1546 1545 1545 1543 1542 1541 1540 1539 1539 1538 1538 1537 1537 1536 1536 1535 1535 1534
1543 1544 1545 1546 1547 1547 1547 1547 1548 1548 1548 1548 1547 1548 1547 1547 1547 1547 1547 1547 1546 1546 1545 1544 1544 1542 1541 1540 1539 1539 1539 1537 1537 1535 1535 1534 1533 1533 1532 1532 1531 1531 1530
1539 1540 1541 1542 1543 1543 1544 1544 1544 1545 1545 1544 1544 1544 1544 1544 1543 1543 1543 1543 1543 1542 1542 1541 1540 1539 1538 1537 1536 1535 1535 1535 1534 1532 1531 1530 1529 1529 1528 1528 1527 1527 1526
1534 1536 1537 1538 1538 1539 1539 1540 1540 1540 1541 1541 1540 1540 1540 1540 1540 1540 1539 1540 1540 1539 1538 1538 1537 1536 1535 1534 1533 1532 1532 1530 1530 1529 1527 1526 1526 1525 1524 1524 1523 1523 1522
1530 1531 1532 1533 1534 1535 1535 1536 1536 1536 1536 1536 1536 1536 1536 1536 1535 1535 1535 1535 1535 1535 1535 1535 1534 1533 1532 1531 1530 1530 1529 1528 1527 1526 1525 1524 1522 1521 1520 1520 1519 1519 1518
1525 1526 1527 1528 1529 1530 1531 1531 1532 1532 1532 1532 1532 1532 1532 1531 1531 1531 1532 1532 1532 1532 1532 1531 1531 1530 1530 1528 1528 1527 1526 1525 1524 1523 1522 1521 1520 1519 1518 1516 1515 1515 1514
1520 1521 1522 1523 1524 1525 1526 1526 1527 1527 1528 1528 1527 1527 1527 1526 1527 1527 1527 1527 1528 1528 1528 1528 1528 1527 1526 1525 1524 1524 1523 1522 1521 1520 1519 1519 1518 1517 1515 1514 1512 1511 1510
1515 1516 1517 1518 1519 1520 1520 1521 1522 1523 1523 1523 1523 1523 1524 1524 1523 1523 1523 1523 1523 1523 1524 1524 1524 1523 1522 1521 1521 1520 1519 1518 1517 1516 1516 1515 1514 1513 1512 1510 1509 1508 1507
1510 1511 1512 1513 1514 1514 1515 1516 1517 1518 1519 1519 1519 1519 1519 1520 1520 1520 1521 1520 1520 1519 1519 1520 1519 1518 1518 1517 1516 1516 1515 1514 1513 1513 1512 1511 1510 1509 1508 1507 1505 1504 1503
1505 1506 1507 1507 1508 1509 1510 1511 1512 1513 1514 1514 1514 1515 1515 1516 1515 1516 1516 1516 1516 1516 1516 1515 1514 1514 1513 1513 1513 1512 1512 1511 1510 1510 1508 1508 1507 1505 1504 1503 1501 1499 1498
1500 1501 1502 1502 1503 1504 1505 1506 1507 1508 1509 1510 1510 1511 1511 1511 1511 1511 1512 1512 1512 1512 1512 1511 1510 1510 1509 1509 1508 1508 1508 1508 1507 1506 1504 1504 1503 1502 1501 1499 1498 1496 1495